FW1964 Weather Reports


time (UTC)temp
F
wind
direction
speed
knots
gust
knots
rain 1hr
in
rain 24hr
in
rain mn
in
humidity
%
barometer
mb
20260901140053 59 163 0.0 1.7 0.00 0.00 0.00 57 1016.6
20260901134552 59 41 0.0 1.7 0.00 0.00 0.00 55 1016.3
20260901133051 59 86 0.0 0.0 0.00 0.00 0.00 55 1016.3
20260901131557 59 98 0.0 0.9 0.00 0.00 0.00 55 1016.1
20260901130058 59 180 0.0 0.0 0.00 0.00 0.00 56 1016.1
20260901124548 59 180 0.0 0.0 0.00 0.00 0.00 58 1016.3
20260901123047 59 180 0.0 0.0 0.00 0.00 0.00 59 1016.1
20260901121546 60 180 0.0 0.0 0.00 0.00 0.00 58 1016.0
20260901120043 60 169 0.0 0.0 0.00 0.00 0.00 58 1016.1
20260901114544 60 148 0.0 0.0 0.00 0.00 0.00 58 1016.1
20260901113043 60 190 0.0 2.6 0.00 0.00 0.00 59 1016.1
20260901111541 60 192 0.0 2.6 0.00 0.00 0.00 58 1016.1
20260901110039 60 169 0.0 1.7 0.00 0.00 0.00 56 1016.0
20260901104538 60 169 0.0 1.7 0.00 0.00 0.00 55 1015.8
20260901103037 60 228 0.0 1.7 0.00 0.00 0.00 54 1015.6
20260901101543 60 52 0.0 1.7 0.00 0.00 0.00 54 1015.7
20260901100041 60 160 0.0 0.9 0.00 0.00 0.00 54 1015.7
20260901094536 60 123 0.0 0.0 0.00 0.00 0.00 54 1015.5
20260901093033 61 174 0.9 3.5 0.00 0.00 0.00 55 1015.5
20260901091532 61 179 0.9 3.5 0.00 0.00 0.00 56 1015.6
20260901090040 61 144 0.0 1.7 0.00 0.00 0.00 56 1015.5
20260901084536 61 171 0.0 0.0 0.00 0.00 0.00 56 1015.5
20260901083035 61 107 0.0 0.0 0.00 0.00 0.00 56 1015.7
20260901081527 61 119 0.0 2.6 0.00 0.00 0.00 57 1015.8
20260901080026 61 129 0.0 0.9 0.00 0.00 0.00 58 1015.8
20260901074530 61 188 0.0 4.3 0.00 0.00 0.00 59 1015.7
20260901073034 61 146 0.0 1.7 0.00 0.00 0.00 59 1015.7
20260901071522 61 215 0.9 2.6 0.00 0.00 0.00 60 1015.7
20260901070023 61 193 0.0 1.7 0.00 0.00 0.00 61 1015.8
20260901064532 61 157 0.0 5.2 0.00 0.00 0.00 61 1015.8
20260901063017 61 173 0.0 3.5 0.00 0.00 0.00 61 1015.9
20260901061521 61 184 0.0 5.2 0.00 0.00 0.00 60 1015.8
20260901060016 61 113 0.0 2.6 0.00 0.00 0.00 60 1015.9
20260901054517 61 175 0.9 2.6 0.00 0.00 0.00 60 1015.9
20260901053016 61 154 0.0 2.6 0.00 0.00 0.00 60 1015.9
20260901051515 61 150 0.0 4.3 0.00 0.00 0.00 60 1016.1
20260901050015 61 184 0.9 3.5 0.00 0.00 0.00 59 1016.0
20260901044514 62 181 2.6 6.1 0.00 0.00 0.00 59 1016.0
20260901043014 62 195 1.7 6.1 0.00 0.00 0.00 58 1015.7
20260901041513 62 228 1.7 5.2 0.00 0.00 0.00 58 1015.5
20260901040013 62 203 1.7 7.0 0.00 0.00 0.00 57 1015.3
20260901034520 62 196 1.7 6.1 0.00 0.00 0.00 57 1015.1
20260901033011 62 169 1.7 6.1 0.00 0.00 0.00 57 1015.0
20260901031520 62 219 2.6 7.8 0.00 0.00 0.00 57 1015.0
20260901030017 63 218 0.9 6.1 0.00 0.00 0.00 57 1014.8
20260901024520 63 182 0.9 4.3 0.00 0.00 0.00 57 1014.7
20260901023009 63 173 1.7 7.8 0.00 0.00 0.00 57 1014.7
20260901021508 63 172 3.5 7.8 0.00 0.00 0.00 56 1014.8
20260901020008 64 200 5.2 7.8 0.00 0.00 0.00 55 1014.8
20260901014507 64 144 2.6 9.6 0.00 0.00 0.00 55 1014.8
20260901013008 64 200 3.5 8.7 0.00 0.00 0.00 54 1014.8
20260901011506 65 198 1.7 9.6 0.00 0.00 0.00 55 1014.7
20260901010009 65 166 4.3 9.6 0.00 0.00 0.00 54 1014.8
20260901004506 65 256 5.2 10.4 0.00 0.00 0.00 53 1014.8
20260901003003 66 225 4.3 11.3 0.00 0.00 0.00 52 1014.8
20260901001503 67 234 5.2 13.0 0.00 0.00 0.00 51 1014.5
20260901000002 68 235 4.3 11.3 0.00 0.00 0.00 49 1014.5
20260831234605 69 216 4.3 13.9 0.00 0.00 0.00 47 1014.8
20260831233058 68 187 2.6 12.2 0.00 0.00 0.00 49 1014.7
20260831231559 68 234 6.1 13.0 0.00 0.00 0.00 48 1014.7
20260831230134 69 283 5.2 10.4 0.00 0.00 0.00 47 1014.6
20260831224554 70 215 4.3 7.8 0.00 0.00 0.00 46 1014.7
20260831223054 70 254 0.9 7.8 0.00 0.00 0.00 46 1014.9
20260831221615 69 188 3.5 9.6 0.00 0.00 0.00 47 1014.9
20260831220051 69 268 3.5 11.3 0.00 0.00 0.00 47 1015.1
20260831214550 68 215 0.9 9.6 0.00 0.00 0.00 49 1015.3
20260831213054 68 213 6.1 13.9 0.00 0.00 0.00 49 1015.4
20260831211601 68 236 6.1 11.3 0.00 0.00 0.00 48 1015.5
20260831210047 69 201 5.2 12.2 0.00 0.00 0.00 47 1015.5
20260831204546 70 202 6.1 13.9 0.00 0.00 0.00 46 1015.4
20260831203046 69 215 4.3 13.0 0.00 0.00 0.00 47 1015.4
20260831201543 69 222 5.2 9.6 0.00 0.00 0.00 47 1015.4
20260831200039 68 159 0.0 5.2 0.00 0.00 0.00 49 1015.5
20260831194610 67 210 3.5 7.8 0.00 0.00 0.00 50 1015.8
20260831193034 66 205 1.7 9.6 0.00 0.00 0.00 51 1016.0
20260831191531 65 178 3.5 7.0 0.00 0.00 0.00 53 1016.2
20260831190027 64 263 4.3 8.7 0.00 0.00 0.00 54 1016.3
20260831184540 64 242 2.6 7.0 0.00 0.00 0.00 54 1016.4
20260831183023 63 236 2.6 6.1 0.00 0.00 0.00 55 1016.5
20260831181527 62 195 1.7 7.0 0.00 0.00 0.00 55 1016.5
20260831180023 62 234 2.6 6.1 0.00 0.00 0.00 56 1016.5
20260831174520 62 244 4.3 7.8 0.00 0.00 0.00 55 1016.5
20260831173018 62 194 1.7 4.3 0.00 0.00 0.00 55 1016.4
20260831171524 61 201 0.9 2.6 0.00 0.00 0.00 56 1016.3
20260831170027 61 150 0.9 2.6 0.00 0.00 0.00 56 1016.2
20260831164510 60 179 0.0 2.6 0.00 0.00 0.00 56 1016.0
20260831163009 60 92 0.0 2.6 0.00 0.00 0.00 56 1016.0
20260831161508 60 111 0.9 2.6 0.00 0.00 0.00 56 1016.1
20260831160010 59 146 0.0 1.7 0.00 0.00 0.00 56 1016.0
20260831154504 59 131 0.0 1.7 0.00 0.00 0.00 56 1016.0
20260831153004 59 101 0.0 0.9 0.00 0.00 0.00 56 1016.0
20260831151601 58 82 0.0 1.7 0.00 0.00 0.00 56 1015.9
20260831151503 58 63 0.0 0.0 0.00 0.00 0.00 56 1015.9
20260831150059 58 48 0.0 2.6 0.00 0.00 0.00 56 1015.6
20260831144558 57 78 0.0 2.6 0.00 0.00 0.00 57 1015.5
20260831143056 57 101 0.0 2.6 0.00 0.00 0.00 57 1015.4
20260831141558 57 74 0.0 1.7 0.00 0.00 0.00 58 1015.3